When you browse on this site, cookies collect data to enhance your experience and personalize the content and advertising you see.
Visit our Privacy Policy to learn more. By continuing to use the site, you agree to this use of cookies and data.
  • In Hungary
  • List of Countries
  • For 7 days
  • Water Temperature
  • Satellite Maps
  • Weather Map
  • News
  • Weather Widgets
  • user-avatar
    Login

    Hourly Weather Molina de Segura

    Today, 19 January, Saturday

    Time Temperature Precipitation Wind Pressure Humidity
    00:00 +7°C° 0 mm 2 mps 752 mmHg 46%
    01:00 +7°C° 0 mm 2 mps 752 mmHg 47%
    02:00 +7°C° 0 mm 2 mps 752 mmHg 47%
    03:00 +6°C° 0 mm 2 mps 752 mmHg 48%
    04:00 +6°C° 0 mm 2 mps 752 mmHg 52%
    05:00 +6°C° 0 mm 2 mps 752 mmHg 56%
    06:00 +5°C° 0 mm 2 mps 752 mmHg 59%
    07:00 +6°C° 0 mm 2 mps 752 mmHg 57%
    08:00 +7°C° 0 mm 2 mps 752 mmHg 55%
    09:00 +8°C° 0 mm 3 mps 752 mmHg 52%
    10:00 +10°C° 0 mm 2 mps 752 mmHg 48%
    11:00 +13°C° 0 mm 2 mps 752 mmHg 43%
    12:00 +14°C° 0 mm 2 mps 752 mmHg 38%
    13:00 +15°C° 0 mm 2 mps 751 mmHg 37%
    14:00 +15°C° 0 mm 2 mps 751 mmHg 37%
    15:00 +16°C° 0 mm 2 mps 750 mmHg 36%
    16:00 +14°C° 0 mm 2 mps 750 mmHg 44%
    17:00 +12°C° 0 mm 2 mps 750 mmHg 53%
    18:00 +10°C° 0 mm 2 mps 749 mmHg 62%
    19:00 +9°C° 0 mm 2 mps 749 mmHg 66%
    20:00 +10°C° 0 mm 1 mps 749 mmHg 71%
    21:00 +10°C° 0 mm 1 mps 749 mmHg 76%
    22:00 +10°C° 0.8 mm 1 mps 749 mmHg 78%
    23:00 +10°C° 0.8 mm 1 mps 748 mmHg 80%

    Tomorrow, 20 January, Sunday

    Time Temperature Precipitation Wind Pressure Humidity
    00:00 +9°C° 0.8 mm 0 mps 748 mmHg 83%
    01:00 +10°C° 0 mm 1 mps 747 mmHg 83%
    02:00 +9°C° 0 mm 1 mps 747 mmHg 84%
    03:00 +9°C° 0 mm 1 mps 746 mmHg 85%
    04:00 +8°C° 0 mm 1 mps 746 mmHg 85%
    05:00 +8°C° 0 mm 1 mps 746 mmHg 84%
    06:00 +8°C° 0 mm 1 mps 746 mmHg 84%
    07:00 +9°C° 0 mm 1 mps 746 mmHg 78%
    08:00 +11°C° 0 mm 1 mps 746 mmHg 73%
    09:00 +13°C° 0 mm 1 mps 746 mmHg 67%
    10:00 +14°C° 0 mm 2 mps 746 mmHg 62%
    11:00 +16°C° 0 mm 3 mps 746 mmHg 58%
    12:00 +17°C° 0 mm 4 mps 747 mmHg 53%
    13:00 +16°C° 0.6 mm 3 mps 747 mmHg 59%
    14:00 +15°C° 0.6 mm 2 mps 747 mmHg 65%
    15:00 +14°C° 0.6 mm 2 mps 747 mmHg 72%
    16:00 +13°C° 0.8 mm 2 mps 747 mmHg 75%
    17:00 +13°C° 0.8 mm 2 mps 748 mmHg 78%
    18:00 +11°C° 0.8 mm 3 mps 749 mmHg 81%
    19:00 +11°C° 0.3 mm 3 mps 749 mmHg 76%
    20:00 +10°C° 0.3 mm 4 mps 750 mmHg 71%
    21:00 +9°C° 0.3 mm 5 mps 750 mmHg 66%
    22:00 +8°C° 0 mm 5 mps 751 mmHg 66%
    23:00 +8°C° 0 mm 5 mps 751 mmHg 65%

    Day after tomorrow, 21 January, Monday

    Time Temperature Precipitation Wind Pressure Humidity
    00:00 +7°C° 0 mm 5 mps 751 mmHg 64%
    01:00 +7°C° 0 mm 5 mps 752 mmHg 66%
    02:00 +6°C° 0 mm 4 mps 752 mmHg 67%
    03:00 +6°C° 0 mm 4 mps 752 mmHg 69%
    04:00 +6°C° 0 mm 4 mps 752 mmHg 70%
    05:00 +5°C° 0 mm 4 mps 753 mmHg 71%
    06:00 +5°C° 0 mm 4 mps 753 mmHg 73%
    07:00 +6°C° 0 mm 4 mps 753 mmHg 69%
    08:00 +6°C° 0 mm 5 mps 754 mmHg 66%
    09:00 +7°C° 0 mm 5 mps 754 mmHg 62%
    10:00 +9°C° 0 mm 6 mps 754 mmHg 56%
    11:00 +10°C° 0 mm 6 mps 754 mmHg 49%
    12:00 +12°C° 0 mm 7 mps 754 mmHg 43%
    13:00 +12°C° 0 mm 7 mps 754 mmHg 41%
    14:00 +12°C° 0 mm 7 mps 754 mmHg 39%
    15:00 +14°C° 0 mm 6 mps 753 mmHg 38%
    16:00 +11°C° 0 mm 6 mps 754 mmHg 41%
    17:00 +10°C° 0 mm 5 mps 754 mmHg 44%
    18:00 +9°C° 0 mm 5 mps 755 mmHg 47%
    19:00 +8°C° 0 mm 4 mps 755 mmHg 49%
    20:00 +8°C° 0 mm 4 mps 755 mmHg 50%
    21:00 +7°C° 0 mm 4 mps 756 mmHg 52%
    22:00 +6°C° 0 mm 4 mps 756 mmHg 54%
    23:00 +6°C° 0 mm 4 mps 756 mmHg 55%

    22 January, Tuesday

    Time Temperature Precipitation Wind Pressure Humidity
    00:00 +5°C° 0 mm 4 mps 756 mmHg 57%
    01:00 +5°C° 0 mm 4 mps 756 mmHg 59%
    02:00 +5°C° 0 mm 4 mps 756 mmHg 60%
    03:00 +4°C° 0 mm 4 mps 755 mmHg 61%
    04:00 +4°C° 0 mm 4 mps 755 mmHg 63%
    05:00 +4°C° 0 mm 3 mps 755 mmHg 64%
    06:00 +3°C° 0 mm 3 mps 755 mmHg 66%
    07:00 +4°C° 0 mm 3 mps 755 mmHg 62%
    08:00 +5°C° 0 mm 3 mps 755 mmHg 58%
    09:00 +7°C° 0 mm 3 mps 755 mmHg 54%
    10:00 +8°C° 0 mm 4 mps 754 mmHg 46%
    11:00 +11°C° 0 mm 4 mps 754 mmHg 39%
    12:00 +13°C° 0 mm 5 mps 753 mmHg 31%
    13:00 +14°C° 0 mm 5 mps 752 mmHg 31%
    14:00 +14°C° 0 mm 5 mps 751 mmHg 30%
    15:00 +15°C° 0 mm 5 mps 750 mmHg 29%
    16:00 +13°C° 0.1 mm 4 mps 750 mmHg 35%
    17:00 +12°C° 0.1 mm 3 mps 749 mmHg 41%
    18:00 +11°C° 0.1 mm 3 mps 749 mmHg 47%
    19:00 +11°C° 0 mm 3 mps 749 mmHg 50%
    20:00 +10°C° 0 mm 4 mps 748 mmHg 53%
    21:00 +10°C° 0 mm 4 mps 748 mmHg 55%
    22:00 +10°C° 0 mm 4 mps 748 mmHg 58%
    23:00 +9°C° 0 mm 5 mps 747 mmHg 62%

    23 January, Wednesday

    Time Temperature Precipitation Wind Pressure Humidity
    00:00 +8°C° 0 mm 5 mps 747 mmHg 65%
    01:00 +8°C° 0 mm 6 mps 747 mmHg 63%
    02:00 +8°C° 0 mm 7 mps 746 mmHg 61%
    03:00 +8°C° 0 mm 7 mps 746 mmHg 59%
    04:00 +6°C° 0 mm 8 mps 746 mmHg 57%
    05:00 +6°C° 0 mm 9 mps 746 mmHg 56%
    06:00 +6°C° 0 mm 9 mps 746 mmHg 54%
    07:00 +7°C° 0 mm 10 mps 746 mmHg 52%
    08:00 +7°C° 0 mm 11 mps 746 mmHg 49%
    09:00 +8°C° 0 mm 12 mps 746 mmHg 47%
    10:00 +9°C° 0 mm 12 mps 746 mmHg 42%
    11:00 +12°C° 0 mm 13 mps 745 mmHg 38%
    12:00 +14°C° 0 mm 13 mps 744 mmHg 34%
    13:00 +14°C° 0 mm 14 mps 743 mmHg 35%
    14:00 +14°C° 0 mm 16 mps 742 mmHg 37%
    15:00 +14°C° 0 mm 17 mps 741 mmHg 39%
    16:00 +13°C° 0.1 mm 15 mps 741 mmHg 43%
    17:00 +12°C° 0.1 mm 12 mps 741 mmHg 48%
    18:00 +11°C° 0.1 mm 9 mps 742 mmHg 52%
    19:00 +11°C° 0 mm 9 mps 742 mmHg 50%
    20:00 +10°C° 0 mm 8 mps 743 mmHg 48%
    21:00 +9°C° 0 mm 7 mps 744 mmHg 46%
    22:00 +9°C° 0.1 mm 7 mps 744 mmHg 47%
    23:00 +8°C° 0.1 mm 6 mps 744 mmHg 49%

    24 January, Thursday

    Time Temperature Precipitation Wind Pressure Humidity
    00:00 +7°C° 0.1 mm 6 mps 744 mmHg 51%
    01:00 +7°C° 0.1 mm 6 mps 744 mmHg 49%
    02:00 +6°C° 0.1 mm 7 mps 743 mmHg 47%
    03:00 +5°C° 0.1 mm 7 mps 743 mmHg 45%
    04:00 +5°C° 0.1 mm 7 mps 743 mmHg 46%
    05:00 +5°C° 0.1 mm 7 mps 743 mmHg 47%
    06:00 +5°C° 0.1 mm 7 mps 743 mmHg 48%
    07:00 +5°C° 0 mm 8 mps 743 mmHg 48%
    08:00 +5°C° 0 mm 8 mps 743 mmHg 48%
    09:00 +5°C° 0 mm 9 mps 743 mmHg 49%
    10:00 +6°C° 0 mm 9 mps 743 mmHg 44%
    11:00 +7°C° 0 mm 10 mps 743 mmHg 38%
    12:00 +9°C° 0 mm 10 mps 743 mmHg 33%
    13:00 +9°C° 0 mm 10 mps 743 mmHg 30%
    14:00 +9°C° 0 mm 11 mps 742 mmHg 27%
    15:00 +9°C° 0 mm 11 mps 742 mmHg 23%
    16:00 +8°C° 0 mm 9 mps 743 mmHg 24%
    17:00 +6°C° 0 mm 8 mps 743 mmHg 25%
    18:00 +5°C° 0 mm 6 mps 743 mmHg 26%
    19:00 +5°C° 0 mm 5 mps 744 mmHg 30%
    20:00 +3°C° 0 mm 5 mps 745 mmHg 33%
    21:00 +3°C° 0 mm 4 mps 745 mmHg 37%
    22:00 +3°C° 0 mm 4 mps 746 mmHg 38%
    23:00 +1°C° 0 mm 4 mps 747 mmHg 40%
    Show more